Year,Month,Day,Hour,Minute,Value (Times are PST for temperature in C)
2015,01,24,01,31,10.70
2015,01,24,01,32,10.70
2015,01,24,01,33,10.70
2015,01,24,01,34,10.70
2015,01,24,01,35,10.70
2015,01,24,01,36,10.70
2015,01,24,01,37,10.70
2015,01,24,01,38,10.70
2015,01,24,01,39,10.70
2015,01,24,01,40,10.70
2015,01,24,01,41,10.70
2015,01,24,01,42,10.70
2015,01,24,01,43,10.70
2015,01,24,01,44,10.70
2015,01,24,01,45,10.70
2015,01,24,01,46,10.70
2015,01,24,01,47,10.70
2015,01,24,01,48,10.70
2015,01,24,01,49,10.70
2015,01,24,01,50,10.70
2015,01,24,01,51,10.70
2015,01,24,01,52,10.70
2015,01,24,01,53,10.70
2015,01,24,01,54,10.70
2015,01,24,01,55,10.70
2015,01,24,01,56,10.70
2015,01,24,01,57,10.70
2015,01,24,01,58,10.70
2015,01,24,01,59,10.70
2015,01,24,02,00,10.70
2015,01,24,02,01,10.80
2015,01,24,02,02,10.80
2015,01,24,02,03,10.80
2015,01,24,02,04,10.80
2015,01,24,02,05,10.80
2015,01,24,02,06,10.80
2015,01,24,02,07,10.80
2015,01,24,02,08,10.80
2015,01,24,02,09,10.80
2015,01,24,02,10,10.80
2015,01,24,02,11,10.80
2015,01,24,02,12,10.80
2015,01,24,02,13,10.80
2015,01,24,02,14,10.80
2015,01,24,02,15,10.80
2015,01,24,02,16,10.80
2015,01,24,02,17,10.80
2015,01,24,02,18,10.80
2015,01,24,02,19,10.80
2015,01,24,02,20,10.80
2015,01,24,02,21,10.80
2015,01,24,02,22,10.80
2015,01,24,02,23,10.80
2015,01,24,02,24,10.80
2015,01,24,02,25,10.80
2015,01,24,02,26,10.80
2015,01,24,02,27,10.80
2015,01,24,02,28,10.80
2015,01,24,02,29,10.80
2015,01,24,02,30,10.80
2015,01,24,02,31,10.20
2015,01,24,02,32,10.20
2015,01,24,02,33,10.20
2015,01,24,02,34,10.20
2015,01,24,02,35,10.20
2015,01,24,02,36,10.20
2015,01,24,02,37,10.20
2015,01,24,02,38,10.20
2015,01,24,02,39,10.20
2015,01,24,02,40,10.20
2015,01,24,02,41,10.20
2015,01,24,02,42,10.20
2015,01,24,02,43,10.20
2015,01,24,02,44,10.20
2015,01,24,02,45,10.20
2015,01,24,02,46,10.20
2015,01,24,02,47,10.20
2015,01,24,02,48,10.20
2015,01,24,02,49,10.20
2015,01,24,02,50,10.20
2015,01,24,02,51,10.20
2015,01,24,02,52,10.20
2015,01,24,02,53,10.20
2015,01,24,02,54,10.20
2015,01,24,02,55,10.20
2015,01,24,02,56,10.20
2015,01,24,02,57,10.20
2015,01,24,02,58,10.20
2015,01,24,02,59,10.20
2015,01,24,03,00,10.20
2015,01,24,03,01,10.30
2015,01,24,03,02,10.30
2015,01,24,03,03,10.30
2015,01,24,03,04,10.30
2015,01,24,03,05,10.30
2015,01,24,03,06,10.30
2015,01,24,03,07,10.30
2015,01,24,03,08,10.30
2015,01,24,03,09,10.30
2015,01,24,03,10,10.30
2015,01,24,03,11,10.30
2015,01,24,03,12,10.30
2015,01,24,03,13,10.30
2015,01,24,03,14,10.30
2015,01,24,03,15,10.30
2015,01,24,03,16,10.30
2015,01,24,03,17,10.30
2015,01,24,03,18,10.30
2015,01,24,03,19,10.30
2015,01,24,03,20,10.30
2015,01,24,03,21,10.30
2015,01,24,03,22,10.30
2015,01,24,03,23,10.30
2015,01,24,03,24,10.30
2015,01,24,03,25,10.30
2015,01,24,03,26,10.30
2015,01,24,03,27,10.30
2015,01,24,03,28,10.30
2015,01,24,03,29,10.30
2015,01,24,03,30,10.30
2015,01,24,03,31,10.30
2015,01,24,03,32,10.30
2015,01,24,03,33,10.30
2015,01,24,03,34,10.30
2015,01,24,03,35,10.30
2015,01,24,03,36,10.30
2015,01,24,03,37,10.30
2015,01,24,03,38,10.30
2015,01,24,03,39,10.30
2015,01,24,03,40,10.30
2015,01,24,03,41,10.30
2015,01,24,03,42,10.30
2015,01,24,03,43,10.30
2015,01,24,03,44,10.30
2015,01,24,03,45,10.30
2015,01,24,03,46,10.30
2015,01,24,03,47,10.30
2015,01,24,03,48,10.30
2015,01,24,03,49,10.30
2015,01,24,03,50,10.30
2015,01,24,03,51,10.30
2015,01,24,03,52,10.30
2015,01,24,03,53,10.30
2015,01,24,03,54,10.30
2015,01,24,03,55,10.30
2015,01,24,03,56,10.30
2015,01,24,03,57,10.30
2015,01,24,03,58,10.30
2015,01,24,03,59,10.30
2015,01,24,04,00,10.30
2015,01,24,04,01,10.40
2015,01,24,04,02,10.40
2015,01,24,04,03,10.40
2015,01,24,04,04,10.40
2015,01,24,04,05,10.40
2015,01,24,04,06,10.40
2015,01,24,04,07,10.40
2015,01,24,04,08,10.40
2015,01,24,04,09,10.40
2015,01,24,04,10,10.40
2015,01,24,04,11,10.40
2015,01,24,04,12,10.40
2015,01,24,04,13,10.40
2015,01,24,04,14,10.40
2015,01,24,04,15,10.40
2015,01,24,04,16,10.40
2015,01,24,04,17,10.40
2015,01,24,04,18,10.40
2015,01,24,04,19,10.40
2015,01,24,04,20,10.40
2015,01,24,04,21,10.40
2015,01,24,04,22,10.40
2015,01,24,04,23,10.40
2015,01,24,04,24,10.40
2015,01,24,04,25,10.40
2015,01,24,04,26,10.40
2015,01,24,04,27,10.40
2015,01,24,04,28,10.40
2015,01,24,04,29,10.40
2015,01,24,04,30,10.40
2015,01,24,04,31,10.40
2015,01,24,04,32,10.40
2015,01,24,04,33,10.40
2015,01,24,04,34,10.40
2015,01,24,04,35,10.40
2015,01,24,04,36,10.40
2015,01,24,04,37,10.40
2015,01,24,04,38,10.40
2015,01,24,04,39,10.40
2015,01,24,04,40,10.40
2015,01,24,04,41,10.40
2015,01,24,04,42,10.40
2015,01,24,04,43,10.40
2015,01,24,04,44,10.40
2015,01,24,04,45,10.40
2015,01,24,04,47,10.40
2015,01,24,04,48,10.40
2015,01,24,04,49,10.40
2015,01,24,04,50,10.40
2015,01,24,04,51,10.40
2015,01,24,04,52,10.40
2015,01,24,04,53,10.40
2015,01,24,04,54,10.40
2015,01,24,04,55,10.40
2015,01,24,04,56,10.40
2015,01,24,04,57,10.40
2015,01,24,04,58,10.40
2015,01,24,04,59,10.40
2015,01,24,05,00,10.40
2015,01,24,05,01,10.30
2015,01,24,05,02,10.30
2015,01,24,05,03,10.30
2015,01,24,05,04,10.30
2015,01,24,05,05,10.30
2015,01,24,05,06,10.30
2015,01,24,05,07,10.30
2015,01,24,05,08,10.30
2015,01,24,05,09,10.30
2015,01,24,05,10,10.30
2015,01,24,05,11,10.30
2015,01,24,05,12,10.30
2015,01,24,05,13,10.30
2015,01,24,05,14,10.30
2015,01,24,05,15,10.30
2015,01,24,05,16,10.30
2015,01,24,05,17,10.30
2015,01,24,05,18,10.30
2015,01,24,05,19,10.30
2015,01,24,05,20,10.30
2015,01,24,05,21,10.30
2015,01,24,05,22,10.30
2015,01,24,05,23,10.30
2015,01,24,05,24,10.30
2015,01,24,05,25,10.30
2015,01,24,05,26,10.30
2015,01,24,05,27,10.30
2015,01,24,05,28,10.30
2015,01,24,05,29,10.30
2015,01,24,05,30,10.30
2015,01,24,05,31,9.90
2015,01,24,05,32,9.90
2015,01,24,05,33,9.90
2015,01,24,05,34,9.90
2015,01,24,05,35,9.90
2015,01,24,05,36,9.90
2015,01,24,05,37,9.90
2015,01,24,05,38,9.90
2015,01,24,05,39,9.90
2015,01,24,05,40,9.90
2015,01,24,05,41,9.90
2015,01,24,05,42,9.90
2015,01,24,05,43,9.90
2015,01,24,05,44,9.90
2015,01,24,05,45,9.90
2015,01,24,05,46,9.90
2015,01,24,05,47,9.90
2015,01,24,05,48,9.90
2015,01,24,05,49,9.90
2015,01,24,05,50,9.90
2015,01,24,05,51,9.90
2015,01,24,05,52,9.90
2015,01,24,05,53,9.90
2015,01,24,05,54,9.90
2015,01,24,05,55,9.90
2015,01,24,05,56,9.90
2015,01,24,05,57,9.90
2015,01,24,05,58,9.90
2015,01,24,05,59,9.90
2015,01,24,06,00,9.90
2015,01,24,06,01,10.10
2015,01,24,06,02,10.10
2015,01,24,06,03,10.10
2015,01,24,06,04,10.10
2015,01,24,06,05,10.10
2015,01,24,06,06,10.10
2015,01,24,06,07,10.10
2015,01,24,06,08,10.10
2015,01,24,06,09,10.10
2015,01,24,06,10,10.10
2015,01,24,06,11,10.10
2015,01,24,06,12,10.10
2015,01,24,06,13,10.10
2015,01,24,06,14,10.10
2015,01,24,06,15,10.10
2015,01,24,06,16,10.10
2015,01,24,06,17,10.10
2015,01,24,06,18,10.10
2015,01,24,06,19,10.10
2015,01,24,06,20,10.10
2015,01,24,06,21,10.10
2015,01,24,06,22,10.10
2015,01,24,06,23,10.10
2015,01,24,06,24,10.10
2015,01,24,06,25,10.10
2015,01,24,06,26,10.10
2015,01,24,06,27,10.10
2015,01,24,06,28,10.10
2015,01,24,06,29,10.10
2015,01,24,06,30,10.10
2015,01,24,06,31,10.30
2015,01,24,06,32,10.30
2015,01,24,06,33,10.30
2015,01,24,06,34,10.30
2015,01,24,06,35,10.30
2015,01,24,06,36,10.30
2015,01,24,06,37,10.30
2015,01,24,06,38,10.30
2015,01,24,06,39,10.30
2015,01,24,06,40,10.30
2015,01,24,06,41,10.30
2015,01,24,06,42,10.30
2015,01,24,06,43,10.30
2015,01,24,06,44,10.30
2015,01,24,06,45,10.30
2015,01,24,06,46,10.30
2015,01,24,06,47,10.30
2015,01,24,06,48,10.30
2015,01,24,06,49,10.30
2015,01,24,06,50,10.30
2015,01,24,06,51,10.30
2015,01,24,06,52,10.30
2015,01,24,06,53,10.30
2015,01,24,06,54,10.30
2015,01,24,06,55,10.30
2015,01,24,06,56,10.30
2015,01,24,06,57,10.30
2015,01,24,06,58,10.30
2015,01,24,06,59,10.30
2015,01,24,07,00,10.30
2015,01,24,07,01,10.10
2015,01,24,07,02,10.10
2015,01,24,07,03,10.10
2015,01,24,07,04,10.10
2015,01,24,07,05,10.10
2015,01,24,07,06,10.10
2015,01,24,07,07,10.10
2015,01,24,07,08,10.10
2015,01,24,07,09,10.10
2015,01,24,07,10,10.10
2015,01,24,07,11,10.10
2015,01,24,07,12,10.10
2015,01,24,07,13,10.10
2015,01,24,07,14,10.10
2015,01,24,07,15,10.10
2015,01,24,07,16,10.10
2015,01,24,07,17,10.10
2015,01,24,07,18,10.10
2015,01,24,07,19,10.10
2015,01,24,07,20,10.10
2015,01,24,07,21,10.10
2015,01,24,07,22,10.10
2015,01,24,07,23,10.10
2015,01,24,07,24,10.10
2015,01,24,07,25,10.10
2015,01,24,07,26,10.10
2015,01,24,07,27,10.10
2015,01,24,07,28,10.10
2015,01,24,07,29,10.10
2015,01,24,07,30,10.10
2015,01,24,07,31,10.10
2015,01,24,07,32,10.10
2015,01,24,07,33,10.10
2015,01,24,07,34,10.10
2015,01,24,07,35,10.10
2015,01,24,07,36,10.10
2015,01,24,07,37,10.10
2015,01,24,07,38,10.10
2015,01,24,07,39,10.10
2015,01,24,07,40,10.10
2015,01,24,07,41,10.10
2015,01,24,07,42,10.10
2015,01,24,07,43,10.10
2015,01,24,07,44,10.10
2015,01,24,07,45,10.10
2015,01,24,07,46,10.10
2015,01,24,07,47,10.10
2015,01,24,07,48,10.10
2015,01,24,07,49,10.10
2015,01,24,07,50,10.10
2015,01,24,07,51,10.10
2015,01,24,07,52,10.10
2015,01,24,07,53,10.10
2015,01,24,07,54,10.10
2015,01,24,07,55,10.10
2015,01,24,07,56,10.10
2015,01,24,07,57,10.10
2015,01,24,07,58,10.10
2015,01,24,07,59,10.10
2015,01,24,08,00,10.10
2015,01,24,08,01,9.70
2015,01,24,08,02,9.70
2015,01,24,08,03,9.70
2015,01,24,08,04,9.70
2015,01,24,08,05,9.70
2015,01,24,08,06,9.70
2015,01,24,08,07,9.70
2015,01,24,08,08,9.70
2015,01,24,08,09,9.70
2015,01,24,08,10,9.70
2015,01,24,08,11,9.70
2015,01,24,08,12,9.70
2015,01,24,08,13,9.70
2015,01,24,08,14,9.70
2015,01,24,08,15,9.70
2015,01,24,08,16,9.70
2015,01,24,08,17,9.70
2015,01,24,08,18,9.70
2015,01,24,08,19,9.70
2015,01,24,08,20,9.70
2015,01,24,08,21,9.70
2015,01,24,08,22,9.70
2015,01,24,08,23,9.70
2015,01,24,08,24,9.70
2015,01,24,08,25,9.70
2015,01,24,08,26,9.70
2015,01,24,08,27,9.70
2015,01,24,08,28,9.70
2015,01,24,08,29,9.70
2015,01,24,08,30,9.70
2015,01,24,08,31,9.70
2015,01,24,08,32,9.70
2015,01,24,08,33,9.70
2015,01,24,08,34,9.70
2015,01,24,08,35,9.70
2015,01,24,08,36,9.70
2015,01,24,08,37,9.70
2015,01,24,08,38,9.70
2015,01,24,08,39,9.70
2015,01,24,08,40,9.70
2015,01,24,08,41,9.70
2015,01,24,08,42,9.70
2015,01,24,08,43,9.70
2015,01,24,08,44,9.70
2015,01,24,08,45,9.70
2015,01,24,08,46,9.70
2015,01,24,08,47,9.70
2015,01,24,08,48,9.70
2015,01,24,08,49,9.70
2015,01,24,08,50,9.70
2015,01,24,08,51,9.70
2015,01,24,08,52,9.70
2015,01,24,08,53,9.70
2015,01,24,08,54,9.70
2015,01,24,08,55,9.70
2015,01,24,08,56,9.70
2015,01,24,08,57,9.70
2015,01,24,08,58,9.70
2015,01,24,08,59,9.70
2015,01,24,09,00,9.70
2015,01,24,09,01,9.70
2015,01,24,09,02,9.70
2015,01,24,09,03,9.70
2015,01,24,09,04,9.70
2015,01,24,09,05,9.70
2015,01,24,09,06,9.70
2015,01,24,09,07,9.70
2015,01,24,09,08,9.70
2015,01,24,09,09,9.70
2015,01,24,09,10,9.70
2015,01,24,09,11,9.70
2015,01,24,09,12,9.70
2015,01,24,09,13,9.70
2015,01,24,09,14,9.70
2015,01,24,09,15,9.70
2015,01,24,09,16,9.70
2015,01,24,09,17,9.70
2015,01,24,09,18,9.70
2015,01,24,09,19,9.70
2015,01,24,09,20,9.70
2015,01,24,09,21,9.70
2015,01,24,09,22,9.70
2015,01,24,09,23,9.70
2015,01,24,09,24,9.70
2015,01,24,09,25,9.70
2015,01,24,09,26,9.70
2015,01,24,09,27,9.70
2015,01,24,09,28,9.70
2015,01,24,09,29,9.70
2015,01,24,09,30,9.70
2015,01,24,09,31,9.50
2015,01,24,09,32,9.50
2015,01,24,09,33,9.50
2015,01,24,09,34,9.50
2015,01,24,09,35,9.50
2015,01,24,09,36,9.50
2015,01,24,09,37,9.50
2015,01,24,09,38,9.50
2015,01,24,09,39,9.50
2015,01,24,09,40,9.50
2015,01,24,09,41,9.50
2015,01,24,09,42,9.50
2015,01,24,09,43,9.50
2015,01,24,09,44,9.50
2015,01,24,09,45,9.50
2015,01,24,09,46,9.50
2015,01,24,09,47,9.50
2015,01,24,09,48,9.50
2015,01,24,09,49,9.50
2015,01,24,09,50,9.50
2015,01,24,09,51,9.50
2015,01,24,09,52,9.50
2015,01,24,09,53,9.50
2015,01,24,09,54,9.50
2015,01,24,09,55,9.50
2015,01,24,09,56,9.50
2015,01,24,09,57,9.50
2015,01,24,09,58,9.50
2015,01,24,09,59,9.50
2015,01,24,10,00,9.50
2015,01,24,10,01,9.50
2015,01,24,10,02,9.50
2015,01,24,10,03,9.50
2015,01,24,10,04,9.50
2015,01,24,10,05,9.50
2015,01,24,10,06,9.50
2015,01,24,10,07,9.50
2015,01,24,10,08,9.50
2015,01,24,10,09,9.50
2015,01,24,10,10,9.50
2015,01,24,10,11,9.50
2015,01,24,10,12,9.50
2015,01,24,10,13,9.50
2015,01,24,10,14,9.50
2015,01,24,10,15,9.50
2015,01,24,10,16,9.50
2015,01,24,10,17,9.50
2015,01,24,10,18,9.50
2015,01,24,10,19,9.50
2015,01,24,10,20,9.50
2015,01,24,10,21,9.50
2015,01,24,10,22,9.50
2015,01,24,10,23,9.50
2015,01,24,10,24,9.50
2015,01,24,10,25,9.50
2015,01,24,10,26,9.50
2015,01,24,10,27,9.50
2015,01,24,10,28,9.50
2015,01,24,10,29,9.50
2015,01,24,10,30,9.50
2015,01,24,10,31,9.60
2015,01,24,10,32,9.60
2015,01,24,10,33,9.60
2015,01,24,10,34,9.60
2015,01,24,10,35,9.60
2015,01,24,10,36,9.60
2015,01,24,10,37,9.60
2015,01,24,10,38,9.60
2015,01,24,10,39,9.60
2015,01,24,10,40,9.60
2015,01,24,10,41,9.60
2015,01,24,10,42,9.60
2015,01,24,10,43,9.60
2015,01,24,10,44,9.60
2015,01,24,10,45,9.60
2015,01,24,10,46,9.60
2015,01,24,10,47,9.60
2015,01,24,10,48,9.60
2015,01,24,10,49,9.60
2015,01,24,10,50,9.60
2015,01,24,10,51,9.60
2015,01,24,10,52,9.60
2015,01,24,10,53,9.60
2015,01,24,10,54,9.60
2015,01,24,10,55,9.60
2015,01,24,10,56,9.60
2015,01,24,10,57,9.60
2015,01,24,10,58,9.60
2015,01,24,10,59,9.60
2015,01,24,11,00,9.60
2015,01,24,11,01,9.50
2015,01,24,11,02,9.50
2015,01,24,11,03,9.50
2015,01,24,11,04,9.50
2015,01,24,11,05,9.50
2015,01,24,11,06,9.50
2015,01,24,11,07,9.50
2015,01,24,11,08,9.50
2015,01,24,11,09,9.50
2015,01,24,11,10,9.50
2015,01,24,11,11,9.50
2015,01,24,11,12,9.50
2015,01,24,11,13,9.50
2015,01,24,11,14,9.50
2015,01,24,11,15,9.50
2015,01,24,11,16,9.50
2015,01,24,11,17,9.50
2015,01,24,11,18,9.50
2015,01,24,11,19,9.50
2015,01,24,11,20,9.50
2015,01,24,11,21,9.50
2015,01,24,11,22,9.50
2015,01,24,11,23,9.50
2015,01,24,11,24,9.50
2015,01,24,11,25,9.50
2015,01,24,11,26,9.50
2015,01,24,11,27,9.50
2015,01,24,11,28,9.50
2015,01,24,11,29,9.50
2015,01,24,11,30,9.50
2015,01,24,11,31,9.60
2015,01,24,11,32,9.60
2015,01,24,11,33,9.60
2015,01,24,11,34,9.60
2015,01,24,11,35,9.60
2015,01,24,11,36,9.60
2015,01,24,11,37,9.60
2015,01,24,11,38,9.60
2015,01,24,11,39,9.60
2015,01,24,11,40,9.60
2015,01,24,11,41,9.60
2015,01,24,11,42,9.60
2015,01,24,11,43,9.60
2015,01,24,11,44,9.60
2015,01,24,11,45,9.60
2015,01,24,11,46,9.60
2015,01,24,11,47,9.60
2015,01,24,11,48,9.60
2015,01,24,11,49,9.60
2015,01,24,11,50,9.60
2015,01,24,11,51,9.60
2015,01,24,11,52,9.60
2015,01,24,11,53,9.60
2015,01,24,11,54,9.60
2015,01,24,11,55,9.60
2015,01,24,11,56,9.60
2015,01,24,11,57,9.60
2015,01,24,11,58,9.60
2015,01,24,11,59,9.60
2015,01,24,12,00,9.60
2015,01,24,12,01,9.60
2015,01,24,12,02,9.60
2015,01,24,12,03,9.60
2015,01,24,12,04,9.60
2015,01,24,12,05,9.60
2015,01,24,12,06,9.60
2015,01,24,12,07,9.60
2015,01,24,12,08,9.60
2015,01,24,12,09,9.60
2015,01,24,12,10,9.60
2015,01,24,12,11,9.60
2015,01,24,12,12,9.60
2015,01,24,12,13,9.60
2015,01,24,12,14,9.60
2015,01,24,12,15,9.60
2015,01,24,12,16,9.60
2015,01,24,12,17,9.60
2015,01,24,12,18,9.60
2015,01,24,12,19,9.60
2015,01,24,12,20,9.60
2015,01,24,12,21,9.60
2015,01,24,12,22,9.60
2015,01,24,12,23,9.60
2015,01,24,12,24,9.60
2015,01,24,12,25,9.60
2015,01,24,12,26,9.60
2015,01,24,12,27,9.60
2015,01,24,12,28,9.60
2015,01,24,12,29,9.60
2015,01,24,12,30,9.60
2015,01,24,12,31,9.60
2015,01,24,12,32,9.60
2015,01,24,12,33,9.60
2015,01,24,12,34,9.60
2015,01,24,12,35,9.60
2015,01,24,12,36,9.60
2015,01,24,12,37,9.60
2015,01,24,12,38,9.60
2015,01,24,12,39,9.60
2015,01,24,12,40,9.60
2015,01,24,12,41,9.60
2015,01,24,12,42,9.60
2015,01,24,12,43,9.60
2015,01,24,12,44,9.60
2015,01,24,12,45,9.60
2015,01,24,12,46,9.60
2015,01,24,12,47,9.60
2015,01,24,12,48,9.60
2015,01,24,12,49,9.60
2015,01,24,12,50,9.60
2015,01,24,12,51,9.60
2015,01,24,12,52,9.60
2015,01,24,12,53,9.60
2015,01,24,12,54,9.60
2015,01,24,12,55,9.60
2015,01,24,12,56,9.60
2015,01,24,12,57,9.60
2015,01,24,12,58,9.60
2015,01,24,12,59,9.60
2015,01,24,13,00,9.60
2015,01,24,13,01,9.70
2015,01,24,13,02,9.70
2015,01,24,13,03,9.70
2015,01,24,13,04,9.70
2015,01,24,13,05,9.70
2015,01,24,13,06,9.70
2015,01,24,13,07,9.70
2015,01,24,13,08,9.70
2015,01,24,13,09,9.70
2015,01,24,13,10,9.70
2015,01,24,13,11,9.70
2015,01,24,13,12,9.70
2015,01,24,13,13,9.70
2015,01,24,13,14,9.70
2015,01,24,13,15,9.70
2015,01,24,13,16,9.70
2015,01,24,13,17,9.70
2015,01,24,13,18,9.70
2015,01,24,13,19,9.70
2015,01,24,13,20,9.70
2015,01,24,13,21,9.70
2015,01,24,13,22,9.70
2015,01,24,13,23,9.70
2015,01,24,13,24,9.70
2015,01,24,13,25,9.70
2015,01,24,13,26,9.70
2015,01,24,13,27,9.70
2015,01,24,13,28,9.70
2015,01,24,13,29,9.70
2015,01,24,13,30,9.70
2015,01,24,13,31,9.90
2015,01,24,13,32,9.90
2015,01,24,13,33,9.90
2015,01,24,13,34,9.90
2015,01,24,13,35,9.90
2015,01,24,13,36,9.90
2015,01,24,13,37,9.90
2015,01,24,13,38,9.90
2015,01,24,13,39,9.90
2015,01,24,13,40,9.90
2015,01,24,13,41,9.90
2015,01,24,13,42,9.90
2015,01,24,13,43,9.90
2015,01,24,13,44,9.90
2015,01,24,13,45,9.90
2015,01,24,13,46,9.90
2015,01,24,13,47,9.90
2015,01,24,13,48,9.90
2015,01,24,13,49,9.90
2015,01,24,13,50,9.90
2015,01,24,13,51,9.90
2015,01,24,13,52,9.90
2015,01,24,13,53,9.90
2015,01,24,13,54,9.90
2015,01,24,13,55,9.90
2015,01,24,13,56,9.90
2015,01,24,13,57,9.90
2015,01,24,13,58,9.90
2015,01,24,13,59,9.90
2015,01,24,14,00,9.90
2015,01,24,14,01,9.90
2015,01,24,14,02,9.90
2015,01,24,14,03,9.90
2015,01,24,14,04,9.90
2015,01,24,14,05,9.90
2015,01,24,14,06,9.90
2015,01,24,14,07,9.90
2015,01,24,14,08,9.90
2015,01,24,14,09,9.90
2015,01,24,14,10,9.90
2015,01,24,14,11,9.90
2015,01,24,14,12,9.90
2015,01,24,14,13,9.90
2015,01,24,14,14,9.90
2015,01,24,14,15,9.90
2015,01,24,14,16,9.90
2015,01,24,14,17,9.90
2015,01,24,14,18,9.90
2015,01,24,14,19,9.90
2015,01,24,14,20,9.90
2015,01,24,14,21,9.90
2015,01,24,14,22,9.90
2015,01,24,14,23,9.90
2015,01,24,14,24,9.90
2015,01,24,14,25,9.90
2015,01,24,14,26,9.90
2015,01,24,14,27,9.90
2015,01,24,14,28,9.90
2015,01,24,14,29,9.90
2015,01,24,14,30,9.90
2015,01,24,14,31,9.80
2015,01,24,14,32,9.80
2015,01,24,14,33,9.80
2015,01,24,14,34,9.80
2015,01,24,14,35,9.80
2015,01,24,14,36,9.80
2015,01,24,14,37,9.80
2015,01,24,14,38,9.80
2015,01,24,14,39,9.80
2015,01,24,14,40,9.80
2015,01,24,14,41,9.80
2015,01,24,14,42,9.80
2015,01,24,14,43,9.80
2015,01,24,14,44,9.80
2015,01,24,14,45,9.80
2015,01,24,14,46,9.80
2015,01,24,14,47,9.80
2015,01,24,14,48,9.80
2015,01,24,14,49,9.80
2015,01,24,14,50,9.80
2015,01,24,14,51,9.80
2015,01,24,14,52,9.80
2015,01,24,14,53,9.80
2015,01,24,14,54,9.80
2015,01,24,14,55,9.80
2015,01,24,14,56,9.80
2015,01,24,14,57,9.80
2015,01,24,14,58,9.80
2015,01,24,14,59,9.80
2015,01,24,15,00,9.80
2015,01,24,15,01,9.90
2015,01,24,15,02,9.90
2015,01,24,15,03,9.90
2015,01,24,15,04,9.90
2015,01,24,15,05,9.90
2015,01,24,15,06,9.90
2015,01,24,15,07,9.90
2015,01,24,15,08,9.90
2015,01,24,15,09,9.90
2015,01,24,15,10,9.90
2015,01,24,15,11,9.90
2015,01,24,15,12,9.90
2015,01,24,15,13,9.90
2015,01,24,15,14,9.90
2015,01,24,15,15,9.90
2015,01,24,15,16,9.90
2015,01,24,15,17,9.90
2015,01,24,15,18,9.90
2015,01,24,15,19,9.90
2015,01,24,15,20,9.90
2015,01,24,15,21,9.90
2015,01,24,15,22,9.90
2015,01,24,15,23,9.90
2015,01,24,15,24,9.90
2015,01,24,15,25,9.90
2015,01,24,15,26,9.90
2015,01,24,15,27,9.90
2015,01,24,15,28,9.90
2015,01,24,15,29,9.90
2015,01,24,15,30,9.90
2015,01,24,15,31,10.00
2015,01,24,15,32,10.00
2015,01,24,15,33,10.00
2015,01,24,15,34,10.00
2015,01,24,15,35,10.00
2015,01,24,15,36,10.00
2015,01,24,15,37,10.00
2015,01,24,15,38,10.00
2015,01,24,15,39,10.00
2015,01,24,15,40,10.00
2015,01,24,15,41,10.00
2015,01,24,15,42,10.00
2015,01,24,15,43,10.00
2015,01,24,15,44,10.00
2015,01,24,15,45,10.00
2015,01,24,15,46,10.00
2015,01,24,15,47,10.00
2015,01,24,15,48,10.00
2015,01,24,15,49,10.00
2015,01,24,15,50,10.00
2015,01,24,15,51,10.00
2015,01,24,15,52,10.00
2015,01,24,15,53,10.00
2015,01,24,15,54,10.00
2015,01,24,15,55,10.00
2015,01,24,15,56,10.00
2015,01,24,15,57,10.00
2015,01,24,15,58,10.00
2015,01,24,15,59,10.00
2015,01,24,16,00,10.00
2015,01,24,16,01,10.10
2015,01,24,16,02,10.10
2015,01,24,16,03,10.10
2015,01,24,16,04,10.10
2015,01,24,16,05,10.10
2015,01,24,16,06,10.10
2015,01,24,16,07,10.10
2015,01,24,16,08,10.10
2015,01,24,16,09,10.10
2015,01,24,16,10,10.10
2015,01,24,16,11,10.10
2015,01,24,16,12,10.10
2015,01,24,16,13,10.10
2015,01,24,16,14,10.10
2015,01,24,16,15,10.10
2015,01,24,16,16,10.10
2015,01,24,16,17,10.10
2015,01,24,16,18,10.10
2015,01,24,16,19,10.10
2015,01,24,16,20,10.10
2015,01,24,16,21,10.10
2015,01,24,16,22,10.10
2015,01,24,16,23,10.10
2015,01,24,16,24,10.10
2015,01,24,16,25,10.10
2015,01,24,16,26,10.10
2015,01,24,16,27,10.10
2015,01,24,16,28,10.10
2015,01,24,16,29,10.10
2015,01,24,16,30,10.10
2015,01,24,16,31,9.80
2015,01,24,16,32,9.80
2015,01,24,16,33,9.80
2015,01,24,16,34,9.80
2015,01,24,16,35,9.80
2015,01,24,16,36,9.80
2015,01,24,16,37,9.80
2015,01,24,16,38,9.80
2015,01,24,16,39,9.80
2015,01,24,16,40,9.80
2015,01,24,16,41,9.80
2015,01,24,16,42,9.80
2015,01,24,16,43,9.80
2015,01,24,16,44,9.80
2015,01,24,16,45,9.80
2015,01,24,16,46,9.80
2015,01,24,16,47,9.80
2015,01,24,16,48,9.80
2015,01,24,16,49,9.80
2015,01,24,16,50,9.80
2015,01,24,16,51,9.80
2015,01,24,16,52,9.80
2015,01,24,16,53,9.80
2015,01,24,16,54,9.80
2015,01,24,16,55,9.80
2015,01,24,16,56,9.80
2015,01,24,16,57,9.80
2015,01,24,16,58,9.80
2015,01,24,16,59,9.80
2015,01,24,17,00,9.80
2015,01,24,17,01,9.50
2015,01,24,17,02,9.50
2015,01,24,17,03,9.50
2015,01,24,17,04,9.50
2015,01,24,17,05,9.50
2015,01,24,17,06,9.50
2015,01,24,17,07,9.50
2015,01,24,17,08,9.50
2015,01,24,17,09,9.50
2015,01,24,17,10,9.50
2015,01,24,17,11,9.50
2015,01,24,17,12,9.50
2015,01,24,17,13,9.50
2015,01,24,17,14,9.50
2015,01,24,17,15,9.50
2015,01,24,17,16,9.50
2015,01,24,17,17,9.50
2015,01,24,17,18,9.50
2015,01,24,17,19,9.50
2015,01,24,17,20,9.50
2015,01,24,17,21,9.50
2015,01,24,17,22,9.50
2015,01,24,17,23,9.50
2015,01,24,17,24,9.50
2015,01,24,17,25,9.50
2015,01,24,17,26,9.50
2015,01,24,17,27,9.50
2015,01,24,17,28,9.50
2015,01,24,17,29,9.50
2015,01,24,17,30,9.50
2015,01,24,17,31,9.30
2015,01,24,17,32,9.30
2015,01,24,17,33,9.30
2015,01,24,17,34,9.30
2015,01,24,17,35,9.30
2015,01,24,17,36,9.30
2015,01,24,17,37,9.30
2015,01,24,17,38,9.30
2015,01,24,17,39,9.30
2015,01,24,17,40,9.30
2015,01,24,17,41,9.30
2015,01,24,17,42,9.30
2015,01,24,17,43,9.30
2015,01,24,17,44,9.30
2015,01,24,17,45,9.30
2015,01,24,17,46,9.30
2015,01,24,17,47,9.30
2015,01,24,17,48,9.30
2015,01,24,17,49,9.30
2015,01,24,17,50,9.30
2015,01,24,17,51,9.30
2015,01,24,17,52,9.30
2015,01,24,17,53,9.30
2015,01,24,17,54,9.30
2015,01,24,17,55,9.30
2015,01,24,17,56,9.30
2015,01,24,17,57,9.30
2015,01,24,17,58,9.30
2015,01,24,17,59,9.30
2015,01,24,18,00,9.30
2015,01,24,18,01,9.70
2015,01,24,18,02,9.70
2015,01,24,18,03,9.70
2015,01,24,18,04,9.70
2015,01,24,18,05,9.70
2015,01,24,18,06,9.70
2015,01,24,18,07,9.70
2015,01,24,18,08,9.70
2015,01,24,18,09,9.70
2015,01,24,18,10,9.70
2015,01,24,18,11,9.70
2015,01,24,18,12,9.70
2015,01,24,18,13,9.70
2015,01,24,18,14,9.70
2015,01,24,18,15,9.70
2015,01,24,18,16,9.70
2015,01,24,18,17,9.70
2015,01,24,18,18,9.70
2015,01,24,18,19,9.70
2015,01,24,18,20,9.70
2015,01,24,18,21,9.70
2015,01,24,18,22,9.70
2015,01,24,18,23,9.70
2015,01,24,18,24,9.70
2015,01,24,18,25,9.70
2015,01,24,18,26,9.70
2015,01,24,18,27,9.70
2015,01,24,18,28,9.70
2015,01,24,18,29,9.70
2015,01,24,18,30,9.70
2015,01,24,18,31,10.20
2015,01,24,18,32,10.20
2015,01,24,18,33,10.20
2015,01,24,18,34,10.20
2015,01,24,18,35,10.20
2015,01,24,18,36,10.20
2015,01,24,18,37,10.20
2015,01,24,18,38,10.20
2015,01,24,18,39,10.20
2015,01,24,18,40,10.20
2015,01,24,18,41,10.20
2015,01,24,18,42,10.20
2015,01,24,18,43,10.20
2015,01,24,18,44,10.20
2015,01,24,18,45,10.20
2015,01,24,18,46,10.20
2015,01,24,18,47,10.20
2015,01,24,18,48,10.20
2015,01,24,18,49,10.20
2015,01,24,18,50,10.20
2015,01,24,18,51,10.20
2015,01,24,18,52,10.20
2015,01,24,18,53,10.20
2015,01,24,18,54,10.20
2015,01,24,18,55,10.20
2015,01,24,18,56,10.20
2015,01,24,18,57,10.20
2015,01,24,18,58,10.20
2015,01,24,18,59,10.20
2015,01,24,19,00,10.20
2015,01,24,19,01,11.40
2015,01,24,19,02,11.40
2015,01,24,19,03,11.40
2015,01,24,19,04,11.40
2015,01,24,19,05,11.40
2015,01,24,19,06,11.40
2015,01,24,19,07,11.40
2015,01,24,19,08,11.40
2015,01,24,19,09,11.40
2015,01,24,19,10,11.40
2015,01,24,19,11,11.40
2015,01,24,19,12,11.40
2015,01,24,19,13,11.40
2015,01,24,19,14,11.40
2015,01,24,19,15,11.40
2015,01,24,19,16,11.40
2015,01,24,19,17,11.40